Total_Precipitation_Accumulation
0.09 0.15 0.33 0.34 0.33 0.31 0.28 0.26 0.26 0.27 0.26 0.28 0.27 0.28 0.30 0.28 0.23 0.19 0.20 0.24 0.26 0.33 0.38 0.39 0.43 0.46 0.43 0.42 0.38 0.22 0.12 0.10 0.08 0.07 0.08 0.11 0.15 0.15 0.13 0.13 0.14 0.15 0.17
0.09 0.15 0.31 0.36 0.38 0.35 0.32 0.28 0.25 0.22 0.26 0.28 0.31 0.34 0.36 0.32 0.26 0.23 0.25 0.27 0.32 0.39 0.40 0.39 0.33 0.29 0.28 0.27 0.20 0.10 0.05 0.03 0.02 0.01 0.02 0.04 0.08 0.11 0.11 0.11 0.12 0.16 0.18
0.10 0.18 0.31 0.37 0.43 0.40 0.37 0.30 0.25 0.21 0.23 0.28 0.34 0.38 0.37 0.34 0.32 0.30 0.31 0.31 0.36 0.40 0.36 0.29 0.24 0.18 0.13 0.12 0.09 0.05 0.03 0.01 0.01 0.01 0.02 0.04 0.06 0.10 0.12 0.12 0.13 0.16 0.16
0.11 0.19 0.31 0.41 0.47 0.45 0.36 0.31 0.28 0.25 0.26 0.29 0.34 0.38 0.35 0.32 0.32 0.28 0.29 0.32 0.34 0.31 0.26 0.19 0.15 0.12 0.09 0.07 0.05 0.03 0.02 0.01 0.01 0.01 0.02 0.04 0.05 0.10 0.15 0.15 0.15 0.14 0.14
0.15 0.22 0.36 0.45 0.52 0.52 0.45 0.39 0.34 0.30 0.31 0.32 0.36 0.39 0.37 0.33 0.31 0.29 0.30 0.30 0.28 0.21 0.19 0.16 0.10 0.09 0.07 0.06 0.04 0.03 0.03 0.02 0.01 0.01 0.03 0.04 0.07 0.14 0.16 0.17 0.17 0.16 0.18
0.26 0.36 0.45 0.49 0.55 0.57 0.55 0.51 0.46 0.39 0.36 0.38 0.40 0.42 0.43 0.38 0.34 0.35 0.32 0.22 0.17 0.17 0.15 0.13 0.09 0.07 0.06 0.05 0.04 0.03 0.03 0.02 0.01 0.01 0.04 0.06 0.09 0.18 0.18 0.18 0.20 0.21 0.24
0.42 0.50 0.56 0.59 0.64 0.61 0.60 0.58 0.55 0.52 0.49 0.47 0.45 0.46 0.51 0.47 0.41 0.36 0.31 0.19 0.14 0.15 0.16 0.15 0.12 0.08 0.06 0.05 0.03 0.04 0.04 0.03 0.01 0.02 0.04 0.06 0.10 0.19 0.19 0.17 0.19 0.22 0.25
0.60 0.68 0.70 0.75 0.77 0.69 0.66 0.63 0.60 0.63 0.63 0.59 0.55 0.55 0.57 0.56 0.49 0.37 0.29 0.18 0.14 0.14 0.15 0.17 0.16 0.12 0.08 0.05 0.04 0.04 0.03 0.02 0.01 0.02 0.04 0.05 0.08 0.15 0.15 0.13 0.13 0.15 0.17
0.88 0.95 0.98 0.91 0.85 0.79 0.73 0.70 0.65 0.66 0.67 0.67 0.62 0.59 0.58 0.56 0.50 0.39 0.27 0.19 0.16 0.16 0.15 0.15 0.16 0.14 0.12 0.08 0.05 0.04 0.03 0.01 0.01 0.03 0.05 0.07 0.11 0.18 0.16 0.14 0.14 0.14 0.15
1.25 1.26 1.25 1.16 1.05 0.94 0.81 0.71 0.66 0.67 0.68 0.66 0.60 0.51 0.45 0.46 0.47 0.40 0.25 0.20 0.17 0.18 0.18 0.15 0.14 0.14 0.11 0.09 0.06 0.04 0.02 0.01 0.01 0.04 0.06 0.08 0.12 0.19 0.20 0.18 0.18 0.19 0.18
1.65 1.54 1.43 1.31 1.22 1.10 0.98 0.80 0.70 0.69 0.73 0.67 0.55 0.46 0.44 0.47 0.44 0.40 0.23 0.17 0.16 0.16 0.19 0.18 0.16 0.15 0.10 0.06 0.05 0.04 0.03 0.03 0.03 0.05 0.06 0.06 0.11 0.15 0.17 0.17 0.17 0.19 0.21
1.77 1.67 1.57 1.45 1.33 1.22 1.07 0.93 0.84 0.74 0.73 0.70 0.56 0.46 0.45 0.46 0.45 0.39 0.27 0.17 0.17 0.15 0.17 0.20 0.18 0.16 0.12 0.07 0.05 0.03 0.04 0.04 0.04 0.04 0.04 0.04 0.08 0.12 0.13 0.15 0.16 0.16 0.17
2.01 1.92 1.77 1.61 1.53 1.43 1.30 1.07 0.95 0.82 0.76 0.79 0.66 0.57 0.52 0.53 0.51 0.48 0.41 0.28 0.25 0.17 0.17 0.21 0.18 0.13 0.12 0.07 0.05 0.04 0.03 0.04 0.04 0.04 0.04 0.04 0.06 0.10 0.14 0.16 0.16 0.16 0.17
2.14 2.08 2.01 1.85 1.65 1.55 1.39 1.27 1.06 0.92 0.79 0.77 0.78 0.70 0.65 0.58 0.51 0.47 0.44 0.35 0.32 0.25 0.22 0.26 0.21 0.14 0.16 0.11 0.08 0.06 0.05 0.05 0.05 0.05 0.05 0.04 0.04 0.07 0.12 0.15 0.16 0.18 0.20
2.00 2.06 2.04 1.96 1.75 1.58 1.43 1.32 1.13 1.03 0.89 0.78 0.81 0.84 0.74 0.65 0.56 0.50 0.51 0.46 0.40 0.33 0.27 0.27 0.26 0.19 0.18 0.15 0.11 0.08 0.07 0.06 0.06 0.06 0.05 0.03 0.03 0.04 0.06 0.11 0.14 0.18 0.24
1.95 2.00 2.08 2.04 1.85 1.68 1.45 1.26 1.15 1.07 1.02 0.99 0.86 0.83 0.82 0.71 0.64 0.60 0.53 0.48 0.44 0.38 0.31 0.27 0.26 0.24 0.19 0.16 0.14 0.10 0.09 0.08 0.07 0.08 0.07 0.06 0.05 0.04 0.04 0.07 0.14 0.23 0.33
1.92 2.06 2.08 2.12 2.05 1.75 1.53 1.34 1.22 1.25 1.18 1.10 0.99 0.89 0.87 0.80 0.72 0.69 0.60 0.50 0.45 0.44 0.41 0.37 0.35 0.31 0.22 0.16 0.12 0.11 0.10 0.09 0.08 0.08 0.08 0.07 0.06 0.05 0.04 0.06 0.10 0.20 0.32
1.86 2.06 2.08 2.06 2.07 1.92 1.61 1.44 1.28 1.21 1.30 1.20 1.12 1.02 0.94 0.93 0.89 0.83 0.72 0.61 0.60 0.62 0.56 0.47 0.43 0.37 0.27 0.21 0.17 0.15 0.12 0.11 0.09 0.08 0.08 0.07 0.06 0.05 0.05 0.05 0.08 0.14 0.23
1.86 2.00 2.09 2.09 2.07 2.14 1.98 1.69 1.53 1.37 1.26 1.33 1.29 1.15 1.00 0.96 0.96 0.89 0.79 0.75 0.78 0.72 0.63 0.55 0.48 0.44 0.35 0.29 0.26 0.22 0.19 0.16 0.13 0.12 0.10 0.09 0.08 0.07 0.08 0.09 0.09 0.11 0.14
1.98 2.06 2.10 2.08 2.08 2.28 2.35 2.11 1.83 1.65 1.38 1.27 1.29 1.19 1.10 1.07 1.02 0.96 0.86 0.85 0.91 0.86 0.75 0.68 0.60 0.55 0.48 0.43 0.38 0.29 0.22 0.20 0.18 0.15 0.13 0.12 0.12 0.12 0.12 0.12 0.13 0.12 0.13
1.99 2.07 2.08 2.04 2.03 2.08 2.17 2.08 1.84 1.61 1.50 1.36 1.28 1.28 1.24 1.22 1.27 1.16 0.98 0.95 0.99 0.91 0.83 0.81 0.81 0.78 0.69 0.63 0.55 0.38 0.26 0.21 0.18 0.15 0.14 0.13 0.13 0.14 0.14 0.16 0.16 0.15 0.15
1.77 2.03 2.09 2.07 2.10 1.96 1.83 1.91 1.92 1.85 1.70 1.57 1.49 1.44 1.36 1.31 1.30 1.29 1.23 1.16 1.15 1.13 1.08 1.01 1.00 0.96 0.89 0.85 0.76 0.66 0.43 0.28 0.19 0.16 0.17 0.17 0.17 0.17 0.17 0.17 0.18 0.18 0.17
1.47 1.75 1.94 2.04 2.09 2.10 2.03 2.13 2.07 1.98 1.78 1.54 1.37 1.37 1.37 1.38 1.39 1.34 1.33 1.34 1.33 1.29 1.21 1.16 1.14 1.13 1.08 1.01 0.95 0.96 0.70 0.42 0.28 0.22 0.21 0.21 0.21 0.21 0.21 0.22 0.21 0.21 0.21
1.22 1.43 1.61 1.89 2.08 2.16 2.22 2.17 2.03 1.81 1.59 1.38 1.36 1.47 1.50 1.47 1.42 1.38 1.37 1.38 1.41 1.37 1.28 1.31 1.32 1.21 1.22 1.17 1.11 1.01 0.85 0.66 0.57 0.41 0.28 0.28 0.29 0.28 0.27 0.26 0.24 0.24 0.24
1.07 1.25 1.37 1.59 1.90 2.00 1.94 1.92 2.00 1.87 1.65 1.54 1.51 1.48 1.46 1.38 1.34 1.31 1.30 1.33 1.32 1.33 1.30 1.32 1.36 1.35 1.30 1.26 1.21 1.16 1.13 0.98 0.82 0.74 0.55 0.41 0.39 0.37 0.37 0.37 0.35 0.32 0.31
0.90 1.08 1.26 1.33 1.54 1.70 1.70 1.73 1.80 1.72 1.66 1.56 1.43 1.38 1.39 1.35 1.26 1.22 1.21 1.24 1.29 1.30 1.27 1.28 1.37 1.43 1.43 1.34 1.23 1.12 1.09 1.03 0.91 0.89 0.79 0.60 0.52 0.43 0.41 0.40 0.40 0.40 0.41